• In Uzbekistan
  • List of Countries
  • For 7 days
  • Water Temperature
  • Weather Map
  • Weather Widgets
  • user-avatar
    Login

    Hourly Weather Folkern

    Today, 16 November, Saturday

    Time Temperature Precipitation Wind Pressure Humidity
    00:00 +4°C° 0 mm 2 mps 760 mmHg 84%
    01:00 +4°C° 0 mm 2 mps 760 mmHg 84%
    02:00 +4°C° 0 mm 2 mps 759 mmHg 83%
    03:00 +4°C° 0 mm 2 mps 759 mmHg 83%
    04:00 +4°C° 0 mm 2 mps 758 mmHg 84%
    05:00 +3°C° 0 mm 3 mps 758 mmHg 85%
    06:00 +3°C° 0 mm 3 mps 757 mmHg 86%
    07:00 +3°C° 0 mm 3 mps 757 mmHg 86%
    08:00 +3°C° 0 mm 3 mps 757 mmHg 85%
    09:00 +4°C° 0 mm 3 mps 756 mmHg 85%
    10:00 +4°C° 0 mm 3 mps 756 mmHg 82%
    11:00 +5°C° 0 mm 4 mps 756 mmHg 79%
    12:00 +6°C° 0 mm 4 mps 755 mmHg 77%
    13:00 +5°C° 0.1 mm 4 mps 755 mmHg 77%
    14:00 +5°C° 0.1 mm 4 mps 755 mmHg 77%
    15:00 +5°C° 0.1 mm 5 mps 754 mmHg 77%
    16:00 +5°C° 0.2 mm 5 mps 754 mmHg 81%
    17:00 +3°C° 0.2 mm 5 mps 754 mmHg 85%
    18:00 +3°C° 0.2 mm 5 mps 754 mmHg 89%
    19:00 +4°C° 0.3 mm 4 mps 754 mmHg 89%
    20:00 +4°C° 0.3 mm 4 mps 754 mmHg 89%
    21:00 +4°C° 0.3 mm 4 mps 754 mmHg 89%
    22:00 +5°C° 0.6 mm 4 mps 755 mmHg 91%
    23:00 +5°C° 0.6 mm 4 mps 755 mmHg 92%

    Tomorrow, 17 November, Sunday

    Time Temperature Precipitation Wind Pressure Humidity
    00:00 +5°C° 0.6 mm 5 mps 755 mmHg 93%
    01:00 +4°C° 1.1 mm 6 mps 756 mmHg 92%
    02:00 +4°C° 1.1 mm 8 mps 756 mmHg 90%
    03:00 +3°C° 1.1 mm 9 mps 757 mmHg 88%
    04:00 +3°C° 0.1 mm 9 mps 757 mmHg 84%
    05:00 +3°C° 0.1 mm 9 mps 758 mmHg 79%
    06:00 +3°C° 0.1 mm 9 mps 759 mmHg 75%
    07:00 +4°C° 0 mm 8 mps 759 mmHg 73%
    08:00 +4°C° 0 mm 8 mps 760 mmHg 71%
    09:00 +4°C° 0 mm 8 mps 761 mmHg 69%
    10:00 +4°C° 0 mm 7 mps 761 mmHg 67%
    11:00 +5°C° 0 mm 7 mps 762 mmHg 65%
    12:00 +5°C° 0 mm 6 mps 762 mmHg 63%
    13:00 +5°C° 0.1 mm 6 mps 762 mmHg 65%
    14:00 +5°C° 0.1 mm 6 mps 763 mmHg 66%
    15:00 +5°C° 0.1 mm 6 mps 763 mmHg 68%
    16:00 +4°C° 0 mm 6 mps 763 mmHg 67%
    17:00 +4°C° 0 mm 6 mps 763 mmHg 67%
    18:00 +3°C° 0 mm 6 mps 763 mmHg 67%
    19:00 +3°C° 0 mm 5 mps 764 mmHg 67%
    20:00 +3°C° 0 mm 5 mps 764 mmHg 67%
    21:00 +3°C° 0 mm 5 mps 764 mmHg 67%
    22:00 +4°C° 0 mm 4 mps 764 mmHg 67%
    23:00 +4°C° 0 mm 4 mps 764 mmHg 67%

    Day after tomorrow, 18 November, Monday

    Time Temperature Precipitation Wind Pressure Humidity
    00:00 +3°C° 0 mm 3 mps 764 mmHg 67%
    01:00 +3°C° 0 mm 3 mps 764 mmHg 67%
    02:00 +4°C° 0 mm 2 mps 764 mmHg 67%
    03:00 +4°C° 0 mm 2 mps 764 mmHg 67%
    04:00 +3°C° 0 mm 2 mps 763 mmHg 69%
    05:00 +3°C° 0 mm 2 mps 763 mmHg 71%
    06:00 +3°C° 0 mm 2 mps 763 mmHg 72%
    07:00 +3°C° 0 mm 2 mps 763 mmHg 73%
    08:00 +2°C° 0 mm 3 mps 763 mmHg 73%
    09:00 +2°C° 0 mm 3 mps 763 mmHg 74%
    10:00 +3°C° 0 mm 4 mps 762 mmHg 73%
    11:00 +3°C° 0 mm 4 mps 762 mmHg 71%
    12:00 +3°C° 0 mm 5 mps 762 mmHg 70%
    13:00 +3°C° 0 mm 5 mps 761 mmHg 71%
    14:00 +3°C° 0 mm 5 mps 761 mmHg 72%
    15:00 +2°C° 0 mm 5 mps 761 mmHg 72%
    16:00 +2°C° 0 mm 5 mps 760 mmHg 73%
    17:00 +1°C° 0 mm 6 mps 760 mmHg 73%
    18:00 -1°C° 0 mm 6 mps 760 mmHg 74%
    19:00 -1°C° 0 mm 6 mps 760 mmHg 73%
    20:00 -1°C° 0 mm 6 mps 759 mmHg 73%
    21:00 -1°C° 0 mm 6 mps 759 mmHg 72%
    22:00 -1°C° 0 mm 6 mps 759 mmHg 72%
    23:00 -1°C° 0 mm 7 mps 759 mmHg 72%

    19 November, Tuesday

    Time Temperature Precipitation Wind Pressure Humidity
    00:00 -1°C° 0 mm 7 mps 758 mmHg 72%
    01:00 -1°C° 0 mm 7 mps 758 mmHg 71%
    02:00 -1°C° 0 mm 7 mps 757 mmHg 71%
    03:00 -1°C° 0 mm 7 mps 757 mmHg 70%
    04:00 -1°C° 0 mm 6 mps 757 mmHg 69%
    05:00 -1°C° 0 mm 6 mps 756 mmHg 68%
    06:00 -1°C° 0 mm 6 mps 756 mmHg 67%
    07:00 -1°C° 0 mm 6 mps 756 mmHg 66%
    08:00 0°C° 0 mm 5 mps 756 mmHg 65%
    09:00 0°C° 0 mm 5 mps 755 mmHg 64%
    10:00 +1°C° 0 mm 5 mps 755 mmHg 62%
    11:00 +3°C° 0 mm 4 mps 755 mmHg 59%
    12:00 +3°C° 0 mm 4 mps 755 mmHg 57%
    13:00 +3°C° 0 mm 4 mps 754 mmHg 57%
    14:00 +3°C° 0 mm 4 mps 754 mmHg 57%
    15:00 +1°C° 0 mm 4 mps 753 mmHg 57%
    16:00 +1°C° 0 mm 4 mps 753 mmHg 57%
    17:00 0°C° 0 mm 4 mps 753 mmHg 58%
    18:00 0°C° 0 mm 4 mps 753 mmHg 58%
    19:00 0°C° 0 mm 4 mps 753 mmHg 57%
    20:00 0°C° 0 mm 4 mps 753 mmHg 55%
    21:00 0°C° 0 mm 5 mps 753 mmHg 54%
    22:00 0°C° 0 mm 5 mps 753 mmHg 53%
    23:00 0°C° 0 mm 5 mps 753 mmHg 53%

    20 November, Wednesday

    Time Temperature Precipitation Wind Pressure Humidity
    00:00 +1°C° 0 mm 5 mps 753 mmHg 52%
    01:00 +1°C° 0 mm 5 mps 753 mmHg 53%
    02:00 +1°C° 0 mm 5 mps 752 mmHg 54%
    03:00 +1°C° 0 mm 6 mps 752 mmHg 55%
    04:00 +1°C° 0 mm 6 mps 752 mmHg 57%
    05:00 +1°C° 0 mm 6 mps 752 mmHg 60%
    06:00 +1°C° 0 mm 6 mps 752 mmHg 62%
    07:00 +2°C° 0 mm 6 mps 752 mmHg 64%
    08:00 +2°C° 0 mm 7 mps 752 mmHg 67%
    09:00 +2°C° 0 mm 7 mps 752 mmHg 69%
    10:00 +3°C° 0 mm 7 mps 752 mmHg 68%
    11:00 +4°C° 0 mm 8 mps 753 mmHg 67%
    12:00 +4°C° 0 mm 8 mps 753 mmHg 65%
    13:00 +4°C° 0 mm 8 mps 753 mmHg 67%
    14:00 +3°C° 0 mm 9 mps 753 mmHg 70%
    15:00 +2°C° 0 mm 10 mps 753 mmHg 72%
    16:00 +2°C° 0 mm 9 mps 753 mmHg 73%
    17:00 +2°C° 0 mm 8 mps 754 mmHg 75%
    18:00 +2°C° 0 mm 7 mps 754 mmHg 76%
    19:00 +3°C° 0 mm 7 mps 754 mmHg 77%
    20:00 +3°C° 0 mm 6 mps 755 mmHg 78%
    21:00 +3°C° 0 mm 6 mps 755 mmHg 78%
    22:00 +3°C° 0 mm 6 mps 755 mmHg 81%
    23:00 +4°C° 0 mm 6 mps 755 mmHg 84%

    21 November, Thursday

    Time Temperature Precipitation Wind Pressure Humidity
    00:00 +5°C° 0 mm 5 mps 755 mmHg 87%
    01:00 +3°C° 0 mm 6 mps 755 mmHg 86%
    02:00 +3°C° 0 mm 6 mps 755 mmHg 84%
    03:00 +3°C° 0 mm 7 mps 755 mmHg 83%
    04:00 +3°C° 0 mm 6 mps 755 mmHg 81%
    05:00 +3°C° 0 mm 6 mps 755 mmHg 79%
    06:00 +3°C° 0 mm 5 mps 756 mmHg 77%
    07:00 +3°C° 0 mm 5 mps 756 mmHg 77%
    08:00 +3°C° 0 mm 6 mps 756 mmHg 78%
    09:00 +3°C° 0 mm 6 mps 756 mmHg 78%
    10:00 +4°C° 0 mm 6 mps 756 mmHg 78%
    11:00 +4°C° 0 mm 6 mps 756 mmHg 78%
    12:00 +5°C° 0 mm 7 mps 756 mmHg 78%
    13:00 +4°C° 0 mm 7 mps 755 mmHg 78%
    14:00 +4°C° 0 mm 7 mps 755 mmHg 78%
    15:00 +4°C° 0 mm 8 mps 755 mmHg 78%
    16:00 +4°C° 0 mm 8 mps 755 mmHg 81%
    17:00 +3°C° 0 mm 9 mps 755 mmHg 83%
    18:00 +3°C° 0 mm 9 mps 755 mmHg 86%
    19:00 +3°C° 0 mm 9 mps 755 mmHg 86%
    20:00 +3°C° 0 mm 9 mps 755 mmHg 86%
    21:00 +4°C° 0 mm 8 mps 755 mmHg 87%
    22:00 +4°C° 0 mm 8 mps 755 mmHg 86%
    23:00 +3°C° 0 mm 9 mps 755 mmHg 86%
    Show more